TimeCST,TemperatureF,Dew PointF,Humidity,Sea Level PressureIn,VisibilityMPH,Wind Direction,Wind SpeedMPH,Gust SpeedMPH,PrecipitationIn,Events,Conditions,WindDirDegrees,DateUTC
12:53 AM,7.0,1.9,80,30.15,9.0,SE,3.5,-,N/A,,Overcast,130,2013-02-17 06:53:00
1:53 AM,3.9,-0.0,84,30.16,8.0,SE,3.5,-,N/A,,Mostly Cloudy,140,2013-02-17 07:53:00
2:53 AM,8.1,3.0,80,30.14,9.0,ESE,4.6,-,N/A,,Overcast,120,2013-02-17 08:53:00
3:53 AM,8.1,3.0,80,30.11,10.0,ESE,5.8,-,N/A,,Partly Cloudy,120,2013-02-17 09:53:00
4:53 AM,8.1,1.9,76,30.09,10.0,ESE,5.8,-,N/A,,Clear,110,2013-02-17 10:53:00
5:53 AM,8.1,1.9,76,30.07,10.0,SE,8.1,-,N/A,,Clear,130,2013-02-17 11:53:00
6:53 AM,6.8,3.2,85,29.95,10.0,SE,8.1,-,N/A,,Clear,140,2013-02-17 12:53:00
7:53 AM,5.0,1.0,84,30.04,8.0,SE,5.8,-,N/A,,Clear,140,2013-02-17 13:53:00
8:29 AM,10.4,5.0,79,29.93,9.0,SE,9.2,-,N/A,,Mostly Cloudy,140,2013-02-17 14:29:00
8:53 AM,10.9,6.1,81,30.01,10.0,SE,11.5,-,N/A,,Overcast,130,2013-02-17 14:53:00
9:04 AM,10.4,6.8,85,29.91,10.0,SE,11.5,-,N/A,,Scattered Clouds,140,2013-02-17 15:04:00
9:53 AM,15.1,9.0,77,29.99,10.0,SSE,13.8,-,N/A,,Mostly Cloudy,150,2013-02-17 15:53:00
10:53 AM,19.9,12.9,74,29.96,10.0,SE,15.0,-,N/A,,Scattered Clouds,140,2013-02-17 16:53:00
11:53 AM,24.1,16.0,71,29.94,10.0,SSE,13.8,-,N/A,,Clear,150,2013-02-17 17:53:00
12:53 PM,26.1,17.1,69,29.89,10.0,SSE,15.0,-,N/A,,Clear,150,2013-02-17 18:53:00
1:53 PM,28.9,19.0,67,29.85,10.0,SSE,16.1,28.8,N/A,,Clear,160,2013-02-17 19:53:00
2:53 PM,30.0,19.9,66,29.81,10.0,SSE,20.7,-,N/A,,Clear,150,2013-02-17 20:53:00
3:53 PM,30.0,19.9,66,29.78,10.0,SE,18.4,-,N/A,,Clear,140,2013-02-17 21:53:00
4:53 PM,30.0,19.9,66,29.76,10.0,SE,15.0,-,N/A,,Clear,140,2013-02-17 22:53:00
5:53 PM,28.9,19.9,69,29.75,10.0,SE,15.0,23.0,N/A,,Clear,140,2013-02-17 23:53:00
6:53 PM,27.0,19.0,72,29.75,10.0,SE,12.7,-,N/A,,Clear,140,2013-02-18 00:53:00
7:53 PM,28.0,19.9,72,29.74,10.0,SE,12.7,-,N/A,,Clear,140,2013-02-18 01:53:00
8:53 PM,28.0,19.9,72,29.72,10.0,SE,11.5,-,N/A,,Clear,130,2013-02-18 02:53:00
9:53 PM,28.0,21.0,75,29.70,10.0,SE,13.8,-,N/A,,Clear,140,2013-02-18 03:53:00
11:53 PM,28.0,21.0,75,29.64,10.0,SE,11.5,-,N/A,,Clear,130,2013-02-18 05:53:00